Zurück zum Katalog

STARLINK-36300

AktivKommunikationSSO
NORAD 68303·PAYLOAD·🇺🇸 United States

Gestartet Mar 20, 2026 von Vandenberg Space Force Base

Loading…

Nächste Überflüge (nächste 24 Stunden)

TLE

AktuellSource: CelesTrak SupGP

Epoche: Sep 14, 2026, 23:26 UTC

1 68303C 26057K   26257.97687500 -.00042513  00000+0 -13194-2 0  2577
2 68303  97.2862  23.4558 0001126  89.1599  36.5276 15.33469256    18

Verfolge STARLINK-36300 in Echtzeit mit AllMySat

Download on the App Store